Fort Wayne Police Department
Fort Wayne Police Department
Emergencies Call: 911
Non-Emergencies: (260) 427-1222
report drug house

Daily Activity Logs

Activity Log for June 26, 2013 Community Search

Incident Time Nature Address
13F092263 00:01:48 22I JUV INVEST 1400 BARTHOLD ST & FOURTH ST W
13F092264 00:01:53 65A SUICIDE ATT 9200 LIMA RD
13F092265 00:01:59 40A AUDIBLE 4200 JEFFERSON BLVD W
13F092266 00:03:13 50,ATTEMPTED 1200 HUESTIS AVE
13F092267 00:03:43 102,TX THREATS 200 COUNTRY FOREST DR
13F092268 00:04:44 40A AUDIBLE 4000 JEFFERSON BLVD W
13F092269 00:06:06 44 NUISANCE 2900 LILLIE ST
13F092270 00:32:26 44FW 4200 FAIRFIELD AVE & MAXINE DR
13F092271 00:33:17 15 ASSIST 3200 OLIVER ST
13F092272 00:37:36 911 HANG UP 2400 SMITH ST
13F092273 00:47:40 129 2400 BUCKHURST RUN
13F092274 00:48:05 911 HANG UP 6400 ROLLING HILLS DR
13F092275 00:50:51 129 5200 BROOKVIEW DR
13F092276 00:51:22 129 5200 EASTWICK DR
13F092277 00:53:31 44LP 900 FULTON ST
13F092278 01:00:41 48,35 2200 DUNKELBERG RD
13F092279 01:00:55 46 DOMESTIC 2500 GOSHEN RD
13F092280 01:01:16 30 TRAFFIC STOP 600 CALHOUN ST S & MAIN ST E
13F092281 01:07:02 40A AUDIBLE 3100 BROADWAY
13F092282 01:07:36 911 HANG UP 3100 WELLS ST
13F092283 01:16:32 40A AUDIBLE 800 LAFAYETTE ST S
13F092284 01:23:09 HARASSMENT 6200 CORNWALLIS DR
13F092285 01:26:41 40A AUDIBLE 4900 COLDWATER RD
13F092286 01:32:09 43,62 4500 MONROE ST S
13F092287 01:34:02 40A AUDIBLE 2100 HANNA ST S
13F092288 01:35:14 23JO 500 CAMDEN DR N
13F092289 01:36:40 HARASSMENT 5200 CORONET CT
13F092290 01:42:30 44FW 100 COUNTRY FOREST DR
13F092291 01:46:05 22RC RECOVERY 2700 MILLBROOK DR
13F092292 01:46:45 113 SHOTS FIRED 1400 BAXTER ST
13F092293 01:47:17 48 SUSPICIOUS 2800 STATE BLVD E
13F092294 01:53:08 129 4300 ANTHONY BLVD S
13F092295 01:55:53 103 UNWANTED 500 MCKINNIE AVE
13F092296 02:02:38 48 SUSPICIOUS 2900 MONROE ST S
13F092297 02:04:55 53 ARMED ROB 2100 OAKLEY ST
13F092298 02:07:28 113 SHOTS FIRED 3300 MONROE ST S
13F092299 02:08:03 40A AUDIBLE 10300 DAWSONS CREEK BLVD
13F092300 02:11:22 911 HANG UP 2600 COVINGTON COMMONS DR
13F092301 02:16:25 43 DISTURBANCE 1200 CAPITOL AVE
13F092302 02:18:42 48,36 5200 WHITEWATER PASS
13F092303 02:24:30 40A AUDIBLE 10400 MAYSVILLE RD
13F092304 02:26:01 46 DOMESTIC 5000 ESTER DR
13F092305 02:30:25 63 CONTACT 2800 RIDGEWAY DR
13F092306 02:34:05 43 DISTURBANCE 2500 MAUMEE AVE & LUMBARD ST
13F092307 02:34:41 48 SUSPICIOUS 2500 MAUMEE AVE
13F092308 02:35:09 40A AUDIBLE 1100 GRANT AVE
13F092309 03:01:23 46,96 2800 TRENTMAN AVE
13F092310 03:03:49 96JO 3300 FELICIAN ST
13F092311 03:13:16 48 SUSPICIOUS 6400 CATHEDRAL OAKS PL
13F092312 03:18:21 40A AUDIBLE 1500 BERRY ST E
13F092313 03:24:25 14 WARRANT 500 HUFFMAN ST
13F092314 03:31:51 96JO 400 JEFFERSON BLVD W
13F092315 03:35:11 111 ANIMAL INVE 2700 PLAZA DR
13F092316 03:38:00 44LM 1000 RIDGEWOOD DR
13F092317 03:58:54 48,36 1800 JEFFERSON BLVD W
13F092318 04:31:31 22RN RUNAWAY 5900 FAIRFIELD AVE
13F092319 04:37:03 25HS HIT SKIP 3800 SHERMAN BLVD & MORROW WAY
13F092320 04:51:51 19 ESCORT 1700 LAFAYETTE ST S
13F092321 04:52:03 50JO 3300 CONGRESS AVE
13F092323 04:56:08 103 UNWANTED 3700 MAUMEE AVE
13F092324 04:57:48 101 OPEN DOOR 6800 COVINGTON CREEK TRL
13F092325 05:10:21 30 TRAFFIC STOP 4300 LIMA RD & COLISEUM BLVD W
13F092326 05:10:34 48 SUSPICIOUS 600 GROWTH AVE
13F092327 05:13:06 40 ALARM 1600 WASHINGTON CENTER RD W
13F092328 05:13:27 66 72 HOUR 2200 RANDALLIA DR
13F092329 05:26:50 51 THEFT 6500 COVINGTON RD
13F092330 05:51:03 101 OPEN DOOR 400 MERKLER ST
13F092331 05:57:05 42 INTOX PERSON 500 JEFFERSON BLVD W
13F092332 06:03:35 30 TRAFFIC STOP 6200 STATE BLVD E & MAPLECREST RD
13F092333 06:07:33 911 HANG UP 5500 ASHLAND DR
13F092334 06:10:06 37 PARKING VIOL 1000 BERRY ST W
13F092335 06:20:07 51,35 8300 MCMAN PL
13F092336 06:28:04 22RC RECOVERY 2800 MAPLE GROVE AVE E
13F092337 06:31:02 25HS HIT SKIP 2900 HANNA ST S & COLERICK ST
13F092338 06:31:33 16V PICKUP VID 00 MAIN ST E
13F092339 06:33:08 25 PD ACCIDENT 2200 RANDALLIA DR & STATE BLVD E
13F092340 06:52:47 51,35 2200 VERSAILLES VILLAGE PL
13F092341 07:04:03 51,35 2200 VERSAILLES VILLAGE PL
13F092342 07:05:51 129 7100 CLUBHOUSE DR
13F092343 07:06:05 129 8200 ST JOE CENTER RD
13F092344 07:07:18 911 HANG UP 2900 CLINTON ST N
13F092345 07:08:40 51,35 2200 VERSAILLES VILLAGE PL
13F092346 07:17:41 39 STOLEN VEHIC 3600 BARR ST S
13F092347 07:22:52 40P PANIC ALARM 3100 SPRING ST
13F092348 07:27:51 40A AUDIBLE 3400 SHERMAN BLVD
13F092349 07:28:19 40A AUDIBLE 2000 TILLMAN RD E
13F092350 07:30:47 25 PD ACCIDENT 6200 ST JOE CENTER RD & MAPLECREST
13F092351 07:32:07 25 PD ACCIDENT 6000 MAPLECREST RD
13F092352 07:34:02 40A AUDIBLE 6200 CROSS CREEK BLVD
13F092353 07:36:41 40A AUDIBLE 3700 VANGUARD DR
13F092354 07:40:18 51 THEFT 3200 REED ST
13F092355 07:42:00 51,35 400 ELMER AVE
13F092356 07:54:11 30 TRAFFIC STOP 3100 GOSHEN RD & I 69 309 NB ON RA
13F092357 07:58:15 911 HANG UP 6700 LIMA RD
13F092358 08:00:31 15 ASSIST 2200 BARR ST S
13F092359 08:03:11 48,36 3900 STATE BLVD E
13F092360 08:04:05 51 THEFT 500 FOURTH ST W
13F092361 08:12:03 51,35 400 PETTIT AVE W
13F092322 08:15:00 99 NARCOTICS 2500 MAUMEE AVE
13F092362 08:22:10 33,34 9300 MAYSVILLE RD & BRICKSHIRE PKW
13F092363 08:25:35 45 NEIGHBORHOOD 1000 CURDES AVE
13F092364 08:29:02 42 INTOX PERSON 3000 LAKE AVE
13F092365 08:31:48 129 7300 BLUFFTON RD
13F092367 08:39:53 40A AUDIBLE 200 TREELINE CV
13F092368 08:40:19 96JO 4600 WASHINGTON BLVD E
13F092369 08:44:26 48,36 800 CLINTON ST S & WAYNE ST E
13F092370 08:49:09 26 PI ACCIDENT 100 STATE BLVD E & EASTBROOK DR
13F092371 08:50:31 51 THEFT 1400 MEDICAL PARK DR
13F092372 08:52:17 15 ASSIST 300 COLISEUM BLVD E & COLDWATER RD
13F092373 08:55:04 911 HANG UP 1900 ANTHONY BLVD N
13F092374 09:02:19 23,35 VAND VEH 1100 FRANKLIN AVE
13F092375 09:07:48 911 HANG UP 3500 HANNA ST S
13F092376 09:10:01 40H HOLDUP ALRM 1700 SPY RUN AVE
13F092377 09:21:55 51 THEFT 7900 DECATUR RD
13F092378 09:25:02 17 MOTOR CHECK 2600 PONTIAC ST E
13F092379 09:25:15 30 TRAFFIC STOP 1000 BROADWAY & JEFFERSON BLVD W
13F092380 09:28:59 17 MOTOR CHECK 3200 BROOKLYN AVE
13F092381 09:29:29 25 PD ACCIDENT 300 PONTIAC ST E & LAFAYETTE ST S
13F092382 09:30:13 25 PD ACCIDENT 2700 COLISEUM BLVD W & HATFIELD RD
13F092383 09:31:43 15 ASSIST 3700 WARSAW ST
13F092384 09:34:39 17 MOTOR CHECK 2800 DEXTER DR
13F092385 09:34:41 50 BURGLARY 100 WAYNE ST W
13F092386 09:40:55 17 MOTOR CHECK 9500 LIMA RD
13F092387 09:42:24 30 TRAFFIC STOP 200 DEWALD ST E & BARR ST S
13F092388 09:46:54 EMS 2300 BOWSER AVE
13F092389 09:48:46 46 DOMESTIC 5200 WEBSTER ST
13F092390 09:54:19 25 PD ACCIDENT 7300 STELLHORN RD & LAHMEYER RD
13F092391 09:55:20 40A AUDIBLE 6200 SHADY CREEK CT
13F092392 09:56:03 15 ASSIST 3000 NORTHHERITAGE PARK LN
13F092393 10:01:49 44LM 100 MAIN ST W
13F092394 10:04:39 17 MOTOR CHECK 4800 BADE DR
13F092395 10:05:54 17 MOTOR CHECK 4900 FAIRINGTON DR
13F092396 10:07:39 44 NUISANCE 2200 HOAGLAND AVE
13F092397 10:11:00 20 PROBLEM UNK 3900 GRETNA AVE
13F092398 10:12:33 40P PANIC ALARM 4800 CHAUCER RD
13F092399 10:13:05 66 MENTALLY ILL 7100 HICKORY CREEK DR
13F092400 10:13:07 66V MENTAL VIOL 3800 PARNELL AVE
13F092401 10:14:45 41 MAN DOWN 10000 DUPONT CIRCLE CT
13F092402 10:17:23 51,35 100 WASHINGTON BLVD W
13F092403 10:19:53 48 SUSPICIOUS 1400 MEYER RD
13F092404 10:24:01 50 BURGLARY 100 BERRY ST W
13F092405 10:24:06 42 INTOX PERSON 400 CLINTON ST S & SUPERIOR ST E
13F092406 10:30:13 129 7400 CLUBHOUSE DR
13F092407 10:30:25 129 2600 KINGSTON PT
13F092408 10:30:48 25 PD ACCIDENT 3400 JEFFERSON BLVD W & WILLOWDALE
13F092410 10:37:53 911 HANG UP 1400 LEWIS ST E
13F092411 10:38:13 911 HANG UP 7100 SILVERTHORN RUN
13F092412 10:39:39 40A AUDIBLE 1200 NUTTMAN AVE
13F092413 10:40:18 51,35 100 WAYNE ST W
13F092414 10:42:43 51 THEFT 9800 COLDWATER RD
13F092415 10:44:26 129 7400 ANTEBELLUM BLVD
13F092416 10:44:43 129 5100 WOODMARK DR
13F092417 10:45:01 129 7600 HARCOURT DR
13F092418 10:45:06 129 7400 TIPPERARY TRL
13F092419 10:45:06 51,35 2100 VERSAILLES VILLAGE PL
13F092420 10:47:31 50 BURGLARY 11500 WESTWIND DR
13F092421 10:51:09 51 THEFT 5000 WINDSOR OAKS DR
13F092422 10:53:54 129 8100 CALERA DR
13F092423 10:54:21 63 CONTACT 7100 HICKORY CREEK DR
13F092424 10:56:08 51 THEFT 2200 HOAGLAND AVE
13F092425 10:56:58 11C CAGE CAR 100 MAIN ST E
13F092426 10:57:34 911 HANG UP 5400 BUTTERFIELD DR
13F092427 10:57:42 51 THEFT 200 PASSIER CT
13F092428 11:02:21 40A AUDIBLE 1400 SUMMIT ST
13F092429 11:03:53 EMS 5000 US 30 W
13F092430 11:10:01 34 TRAFF HAZARD 1800 ANTHONY BLVD S
13F092431 11:10:31 17 MOTOR CHECK 6100 LANDSDOWNE DR
13F092432 11:12:05 25 PD ACCIDENT 30900 I 69 SB
13F092433 11:15:09 40A AUDIBLE 1900 BRANDYWINE TRL
13F092434 11:15:13 25 PD ACCIDENT 30900 I 69 SB
13F092435 11:16:59 46 DOMESTIC 1700 CALHOUN ST S
13F092436 11:19:14 25 PD ACCIDENT 8500 JEFFERSON BLVD W & ELLISON RD
13F092437 11:20:33 33,34 1000 COLISEUM BLVD E & PARNELL AVE
13F092438 11:23:09 51 THEFT 3000 SOUTHWIN DR
13F092439 11:24:03 17 MOTOR CHECK 1300 COOK RD E
13F092440 11:29:08 33,34 5300 LAKE AVE
13F092441 11:34:15 25 PD ACCIDENT 1900 BROADWAY & TAYLOR ST
13F092442 11:34:54 101 OPEN DOOR 3400 SCHELE AVE
13F092444 11:39:52 911 HANG UP 5400 SOUTHBEND DR
13F092445 11:42:39 108 FOLLOWUP 00 MAIN ST E
13F092446 11:43:31 113 SHOTS FIRED 1600 REED RD
13F092447 11:47:39 LP LOST PROPERT 1100 STATE BLVD W
13F092448 11:49:36 50IP BURG I/P 9700 SEA VIEW CV
13F092449 11:50:17 16,97 7600 PATRIOT XING
13F092450 11:50:29 25 PD ACCIDENT 3800 STATE BLVD E
13F092451 11:56:52 30 TRAFFIC STOP 500 EWING ST & PEARL ST
13F092452 11:56:55 40A AUDIBLE 5000 VANCE AVE
13F092453 11:59:05 25 PD ACCIDENT 5800 INDUSTRIAL RD
13F092454 12:03:26 16,97 3500 ANTHONY BLVD N
13F092455 12:03:48 51JO 2400 BARNHART AVE
13F092456 12:03:50 25 PD ACCIDENT 3200 STELLHORN RD & ST JOE RD
13F092457 12:06:59 911 HANG UP 1700 LUMBARD ST
13F092458 12:12:40 25 PD ACCIDENT 10300 AUBURN RD & DUPONT RD E
13F092459 12:20:36 51,35 3800 GAYWOOD DR
13F092460 12:21:03 911 HANG UP 700 WASHINGTON BLVD W
13F092461 12:21:13 55 FIGHT 6200 KENT RD
13F092462 12:27:48 40A AUDIBLE 900 EASTLAWN DR
13F092463 12:28:03 50,ATTEMPTED 4900 NORTHCREST DR
13F092464 12:33:01 40A AUDIBLE 3800 WINTERFIELD RUN
13F092465 12:35:15 46 DOMESTIC 2800 DREXEL AVE
13F092466 12:36:32 911 HANG UP 6100 CHASE CREEK RUN
13F092467 12:39:18 50 BURGLARY 5900 BUNT DR
13F092468 12:39:36 46 DOMESTIC 4500 CRAFTSBURY CIR
13F092469 12:40:11 911 HANG UP 400 CAMDEN DR E
13F092470 12:41:07 51 THEFT 2300 BOWSER AVE
13F092471 12:42:06 17 MOTOR CHECK 800 AVENUE OF AUTOS
13F092472 12:43:53 911 HANG UP 5200 ANTHONY BLVD S
13F092473 12:48:08 99 NARCOTICS 3500 HARRISON ST S
13F092474 12:51:12 911 HANG UP 2900 DREXEL AVE
13F092475 12:52:48 15 ASSIST 2000 SHADY BROOK DR
13F092476 12:53:12 911 HANG UP 3100 STEPPING STONE LN
13F092477 12:54:32 911 HANG UP 5500 COLDWATER RD
13F092478 12:57:59 911 HANG UP 1900 ANTHONY BLVD N
13F092479 13:00:15 51 THEFT 1100 BRECK ST
13F092480 13:00:45 911 HANG UP 4900 LESTER DR
13F092481 13:00:59 911 HANG UP 3200 DINNEN AVE
13F092482 13:03:26 911 HANG UP 300 WASHINGTON BLVD E
13F092483 13:03:32 30 TRAFFIC STOP 6500 LIMA RD & LUDWIG RD W
13F092484 13:14:39 113 SHOTS FIRED 1700 THIRD ST & RUNNION AVE
13F092485 13:19:09 46,96 1500 ROOSEVELT DR
13F092486 13:28:19 64 NOT SEEN 4200 KEKIONGA DR
13F092487 13:29:11 23 VANDALISM 2100 BEVEL AVE
13F092488 13:31:20 35 PARKED VEHIC 1600 HOWELL ST & RUMSEY AVE
13F092489 13:31:42 911 HANG UP 1700 APPLE GLEN BLVD
13F092490 13:31:56 25 PD ACCIDENT 2100 WASHINGTON BLVD E
13F092491 13:33:20 17 MOTOR CHECK 3500 COLISEUM BLVD W
13F092492 13:33:22 40 ALARM 3400 SHERMAN BLVD
13F092493 13:34:14 129 800 OWLS PT
13F092494 13:34:38 911 HANG UP 1600 WALL ST
13F092495 13:36:05 26 PI ACCIDENT 700 LAFAYETTE ST S & BERRY ST E
13F092496 13:37:37 911 HANG UP 2700 LAKE AVE & BEACON ST
13F092497 13:43:37 911 HANG UP 1200 STATE BLVD W
13F092498 13:43:50 40A AUDIBLE 1800 WOOD MOOR DR
13F092499 13:45:38 911 HANG UP 6500 LIBERTY DR
13F092500 13:46:33 51 THEFT 2000 HOBSON RD
13F092501 13:48:53 40A AUDIBLE 2500 ST THOMAS PT E
13F092502 13:49:11 911 HANG UP 6300 HANNA ST S
13F092503 13:50:35 911 HANG UP 4100 MANITO BLVD
13F092504 13:52:08 38 LOST/STOLEN 1900 FAIRFAX AVE E
13F092505 13:52:37 51 THEFT 1600 ST MARYS AVE
13F092506 13:52:47 43 DISTURBANCE 400 FLEMING AVE W
13F092507 13:53:51 30 TRAFFIC STOP 300 JEFFERSON BLVD E
13F092508 13:54:58 40H HOLDUP ALRM 3900 STATE BLVD E
13F092509 13:56:52 911 HANG UP 3000 WAYNE TRACE & EVANS ST
13F092510 14:00:03 911 HANG UP 5800 ANTHONY BLVD S
13F092511 14:00:07 129 1100 LUDWIG RD W
13F092512 14:06:14 25 PD ACCIDENT 1000 ANTHONY BLVD S & MAUMEE AVE
13F092513 14:06:40 40A AUDIBLE 500 TABER ST E
13F092514 14:07:45 17 MOTOR CHECK 3200 LOWER HUNTINGTON RD
13F092515 14:08:44 911 HANG UP 6700 WOODCREST DR
13F092516 14:10:40 911 HANG UP 1000 ANTHONY BLVD S & MAUMEE AVE
13F092517 14:14:31 24 MISSING PERS 3000 WAYNEDALE BLVD
13F092518 14:15:09 33,34 1200 LAFAYETTE ST S & DOUGLAS AVE
13F092519 14:17:29 46 DOMESTIC 00 MAIN ST E
13F092520 14:23:01 51 THEFT 2000 BAYVIEW DR
13F092521 14:25:01 911 HANG UP 1500 BARTHOLD ST
13F092522 14:28:43 911 HANG UP 5000 US 30 W
13F092523 14:29:04 50 BURGLARY 7000 JOHN ST
13F092524 14:30:02 26 PI ACCIDENT 200 COLISEUM BLVD E
13F092526 14:38:12 25 PD ACCIDENT 1000 COLISEUM BLVD W
13F092527 14:41:03 25 PD ACCIDENT 2100 MAUMEE AVE & DUBOIS ST
13F092528 14:43:25 48 SUSPICIOUS 1900 BROADWAY & TAYLOR ST
13F092529 14:45:32 25 PD ACCIDENT 4700 COLDWATER RD & COLLINS RD E
13F092530 14:49:10 51JO 4200 COLDWATER RD
13F092531 14:54:27 25 PD ACCIDENT 1400 SYCAMORE HILLS PKWY
13F092532 14:56:18 51 THEFT 8900 STONERIDGE CT
13F092533 14:58:00 25HS HIT SKIP 00 COUNTRY FOREST DR
13F092534 15:00:34 22RN RUNAWAY 5500 STANDISH DR
13F092535 15:00:38 44LM 500 CALHOUN ST S & COLUMBIA ST W
13F092536 15:02:40 30 TRAFFIC STOP 1900 WASHINGTON BLVD E & GRANT AVE
13F092537 15:04:21 911 HANG UP 1900 RANDALLIA DR
13F092538 15:04:54 43 DISTURBANCE 1400 SPY RUN AVE
13F092539 15:05:21 30 TRAFFIC STOP 400 OXFORD ST & WARSAW ST
13F092540 15:05:22 102,TX THREATS 7900 DECATUR RD
13F092541 15:06:48 51,35 8000 COMMUNITY LN
13F092542 15:08:07 103 UNWANTED 500 DUPONT RD E
13F092543 15:11:52 63 CONTACT 2900 GOSHEN RD
13F092544 15:12:12 83 INFO REPORT 6000 HIGHVIEW DR
13F092545 15:12:15 24 MISSING PERS 6700 BRADBURY AVE
13F092546 15:15:51 15 ASSIST 300 FOURTH ST W & WELLS ST
13F092547 15:16:36 30 TRAFFIC STOP 1900 WASHINGTON BLVD E & GRANT AVE
13F092548 15:17:21 43 DISTURBANCE 6000 GUILD DR
13F092549 15:17:52 109 DUMPING 2300 STRATHMORE ST
13F092550 15:19:23 911 HANG UP 7400 LESWOOD CT
13F092551 15:19:55 40A AUDIBLE 1000 PRANGE DR
13F092552 15:21:08 34 TRAFF HAZARD 3800 ANTHONY BLVD N & COLISEUM BLV
13F092553 15:22:07 33J LOCKED OUT 3900 ILLINOIS RD
13F092554 15:25:45 30 TRAFFIC STOP 1100 JEFFERSON BLVD W & COLLEGE ST
13F092555 15:26:12 97A LOST ITEMS 3200 SCHELE AVE
13F092556 15:26:49 65T SUICIDE THR 3300 COLISEUM BLVD W
13F092557 15:27:22 40A AUDIBLE 4000 INDIANA AVE
13F092558 15:27:44 911 HANG UP 1300 FARWOOD AVE
13F092559 15:28:23 911 HANG UP 4800 OLD MAYSVILLE RD
13F092560 15:28:58 30 TRAFFIC STOP 1000 OXFORD ST & SMITH ST
13F092561 15:29:19 46 DOMESTIC 1600 REED RD
13F092562 15:30:29 40A AUDIBLE 400 BRACKENRIDGE ST W
13F092563 15:31:03 1 MEET 1400 BOONE ST
13F092564 15:31:10 911 HANG UP 7200 ST JOE RD
13F092565 15:32:15 34 TRAFF HAZARD 4700 STELLHORN RD & REED RD
13F092566 15:32:59 19 ESCORT 3800 FERGUSON RD W
13F092567 15:33:40 11C CAGE CAR 4200 COLDWATER RD
13F092568 15:35:28 51 THEFT 2700 CLARA AVE
13F092569 15:38:21 23 VANDALISM 6200 CATBIRD AVE
13F092570 15:40:55 44LM 100 COLUMBIA ST W
13F092571 15:42:54 30 TRAFFIC STOP 1100 JEFFERSON BLVD W & COLLEGE ST
13F092572 15:43:14 11C CAGE CAR 10300 MAYSVILLE RD
13F092573 15:43:20 25 PD ACCIDENT 6000 JEFFERSON BLVD W
13F092575 15:43:24 15 ASSIST 2300 WALLEN RD E
13F092574 15:44:04 911 HANG UP 400 JEFFERSON BLVD E
13F092576 15:45:42 25 PD ACCIDENT 4500 LAFAYETTE ST S & SHERWOOD TER
13F092577 15:49:00 63 CONTACT 2200 CALHOUN ST S
13F092578 15:49:02 63 CONTACT 2100 CALHOUN ST S & DEWALD ST E
13F092579 15:49:28 25 PD ACCIDENT 6700 NORTHRIVER RD & MAYSVILLE RD
13F092580 15:49:32 25 PD ACCIDENT 6000 JEFFERSON BLVD W & GETZ RD
13F092581 15:49:38 911 HANG UP 6800 BLUFFTON RD
13F092582 15:49:40 62 PARTY ARMED 4700 OXFORD ST & MEYER RD
13F092583 15:49:42 EMS 7100 HICKORY CREEK DR
13F092584 15:49:45 25 PD ACCIDENT 4500 LAFAYETTE ST S & SHERWOOD TER
13F092585 15:49:54 1 MEET 1000 WELLS ST
13F092586 15:50:40 22I JUV INVEST 2400 GAY ST
13F092587 15:51:02 15 ASSIST 400 JEFFERSON BLVD W & FAIRFIELD A
13F092588 15:51:09 51,35 2100 VERSAILLES VILLAGE PL
13F092589 15:52:01 911 HANG UP 2100 LANSING AVE
13F092590 15:58:36 51 THEFT 2300 POINT WEST DR
13F092591 16:00:09 911 HANG UP 3000 CLINTON ST N
13F092592 16:03:39 911 HANG UP 2700 CAPITOL AVE
13F092593 16:03:46 33,34 4100 SMITH RD & ENGLE RD
13F092594 16:06:50 33,34 2900 GOSHEN RD & COLISEUM BLVD W
13F092595 16:09:37 34 TRAFF HAZARD 1700 TILLMAN RD E & ANTHONY BLVD S
13F092596 16:10:24 911 HANG UP 6800 CHADWICK DR
13F092597 16:10:55 25,86 6700 NORTHRIVER RD & MAYSVILLE RD
13F092598 16:14:26 911 HANG UP 2700 STARDALE DR
13F092599 16:15:12 911 HANG UP 700 STATE BLVD W
13F092600 16:15:23 38 LOST/STOLEN 3400 WAYNE TRACE & OXFORD ST
13F092601 16:15:49 30 TRAFFIC STOP 3800 OLIVER ST & RUDISILL BLVD E
13F092602 16:18:44 911 HANG UP 2700 COLISEUM BLVD W
13F092603 16:24:30 45 NEIGHBORHOOD 700 HUFFMAN ST
13F092604 16:26:59 911 HANG UP 5000 HOEVEL RD
13F092605 16:28:46 30 TRAFFIC STOP 3600 ANTHONY BLVD S & GRIER ST
13F092606 16:28:49 14 WARRANT 4300 SOUTHPARK DR
13F092607 16:29:42 30 TRAFFIC STOP 5900 STELLHORN RD
13F092608 16:30:29 46 DOMESTIC 4600 WONDERBOY WAY
13F092609 16:32:12 17 MOTOR CHECK 6700 FOREST GLEN CT
13F092610 16:32:52 103 UNWANTED 6300 CALHOUN ST S
13F092611 16:33:33 911 HANG UP 1300 CRESCENT CIR
13F092612 16:37:18 EMS 6400 COVINGTON RD
13F092613 16:37:25 911 HANG UP 1300 CRESCENT CIR
13F092614 16:41:02 1 MEET 4300 MAPLECREST RD & STELLHORN RD
13F092615 16:42:57 43 DISTURBANCE 900 HAMILTON AVE
13F092616 16:43:04 911 HANG UP 5800 TURTLE CREEK DR
13F092617 16:43:44 1 MEET 1400 BOONE ST
13F092618 16:45:23 EMS 700 WAGNER ST
13F092619 16:46:24 43 DISTURBANCE 2900 FROSCH DR & ARLENE AVE
13F092620 16:52:04 129 4200 OAKHURST DR
13F092621 16:52:12 911 HANG UP 6300 BENNINGTON DR
13F092622 16:53:50 25 PD ACCIDENT 1400 COLISEUM BLVD N & LAKE AVE
13F092623 16:55:15 26 PI ACCIDENT 700 JEFFERSON BLVD W & VAN BUREN S
13F092624 16:56:53 80 CIVIL INVEST 2900 CANTERBURY BLVD
13F092625 16:58:09 25 PD ACCIDENT 1000 BROADWAY & JEFFERSON BLVD W
13F092626 16:58:36 911 HANG UP 6700 DEL RIO DR
13F092627 17:00:38 30 TRAFFIC STOP 4000 LIMA RD & ICE WAY
13F092628 17:01:06 66V MENTAL VIOL 1000 HUESTIS AVE
13F092629 17:02:15 51 THEFT 3700 OAKPARK DR
13F092630 17:03:01 51,35 100 WASHINGTON BLVD W
13F092631 17:03:31 63 CONTACT 2000 NEUHAUS DR
13F092632 17:03:37 40A AUDIBLE 900 LIBERTY ST
13F092633 17:05:02 46 DOMESTIC 1400 HARRISON ST N
13F092634 17:06:47 1 MEET 4300 FAIRFIELD AVE
13F092635 17:10:03 51,35 100 WAYNE ST W
13F092636 17:11:04 96 BATTERY 6600 MILLWRIGHTS CT
13F092637 17:15:29 15,85 ASST AT O 4300 SOUTHPARK DR
13F092638 17:15:32 15,85 ASST AT O 4300 SOUTHPARK DR
13F092639 17:16:40 51 THEFT 2000 CALHOUN ST S
13F092640 17:17:27 911 HANG UP 7000 JOHN ST
13F092641 17:18:33 34 TRAFF HAZARD 800 AIRPORT EXPRESSWAY & WINCHESTE
13F092642 17:18:45 40A AUDIBLE 5500 DECATUR RD
13F092643 17:25:42 25 PD ACCIDENT 1600 WINNSBORO PASS & LIMA RD
13F092644 17:26:09 911 HANG UP 3100 WINTER ST
13F092645 17:31:09 EMS 300 SUPERIOR ST W
13F092646 17:31:52 30 TRAFFIC STOP 7800 MAYSVILLE RD & SANDARAC LN
13F092647 17:32:01 83 INFO REPORT 6900 PALMETTA CT
13F092648 17:34:15 51JO 3200 STELLHORN RD
13F092649 17:38:26 43 DISTURBANCE 3500 SMITH ST
13F092650 17:38:30 103 UNWANTED 4600 WONDERBOY WAY
13F092651 17:39:58 40H HOLDUP ALRM 300 SUPERIOR ST W
13F092652 17:40:20 15 ASSIST 00 MAIN ST E
13F092653 17:40:41 25 PD ACCIDENT 11800 LIMA RD & CARROLL RD
13F092654 17:46:39 51 THEFT 600 JEFFERSON BLVD W
13F092655 17:47:49 129 3600 THREE OAKS DR
13F092656 17:49:12 103 UNWANTED 2800 WILLOW OAKS DR
13F092657 17:49:50 46 DOMESTIC 00 MAIN ST E
13F092658 17:50:32 43 DISTURBANCE 100 PETTIT AVE E
13F092659 17:50:33 26PP PINNED 2200 KENTUCKY AVE & STATE BLVD E
13F092660 17:52:02 26 PI ACCIDENT 1100 STATE BLVD E & CRESCENT AVE
13F092661 17:53:22 911 HANG UP 1400 TAYLOR ST
13F092662 17:53:33 911 HANG UP 5600 ST JOE RD
13F092663 17:57:18 26 PI ACCIDENT 500 MAPLECREST RD & LAKE AVE
13F092664 17:58:38 51 THEFT 2800 TAYLOR ST & CATALPA ST
13F092665 18:04:19 911 HANG UP 4400 ABOITE LAKE DR
13F092666 18:04:33 911 HANG UP 1800 LAFAYETTE ST S
13F092667 18:06:57 30 TRAFFIC STOP 00 MAIN ST E & CALHOUN ST S
13F092668 18:07:23 33,34 4700 LAKE AVE & REED RD
13F092669 18:07:40 911 HANG UP 4400 GAYWOOD DR
13F092670 18:07:42 25 PD ACCIDENT 4800 BLUFFTON RD & WINCHESTER RD
13F092671 18:08:05 911 HANG UP 700 PUTNAM ST
13F092672 18:18:18 911 HANG UP 2900 CRESCENT AVE
13F092673 18:19:20 25 PD ACCIDENT 2900 CRESCENT AVE & GLENWOOD AVE
13F092674 18:21:18 911 HANG UP 3300 WINTER ST
13F092675 18:27:42 63 CONTACT 6000 ALLENWOOD DR
13F092676 18:29:55 46,96 5400 CALHOUN ST S
13F092677 18:30:33 911 HANG UP 3100 PLAZA DR
13F092678 18:31:08 911 HANG UP 2800 WINDRUSH DR
13F092679 18:34:17 129 2700 WHITEGATE DR
13F092680 18:35:17 99 NARCOTICS 2500 ORMSBY ST
13F092681 18:35:33 48 SUSPICIOUS 3300 CLINTON ST N
13F092682 18:37:06 102,TX THREATS 4500 REED ST
13F092683 18:38:55 17 MOTOR CHECK 5500 HOPKINTON DR
13F092684 18:38:59 25HS HIT SKIP 1000 RIVERMET AVE
13F092685 18:41:12 911 HANG UP 8200 PARK STATE DR
13F092686 18:49:03 40A AUDIBLE 2500 EUCLID AVE
13F092687 18:51:20 99 NARCOTICS 2600 INDIANA AVE & GRACE AVE
13F092688 18:59:21 44FW 2700 NORTHGATE BLVD
13F092689 19:00:39 911 HANG UP 1500 GOSHEN AVE
13F092690 19:03:27 EMS 7500 SOUTHTOWN XING
13F092691 19:09:22 83 INFO REPORT 2200 DREXEL AVE
13F092692 19:13:05 EMS 3800 FERGUSON RD W
13F092693 19:16:11 911 HANG UP 5400 HIGHVIEW DR
13F092694 19:21:27 55 FIGHT 800 GRACE AVE
13F092695 19:24:05 50 BURGLARY 2000 NELSON ST
13F092696 19:24:24 25,86 7500 ANTHONY BLVD S
13F092697 19:25:29 43 DISTURBANCE 1400 HARRISON ST N
13F092698 19:26:22 45 NEIGHBORHOOD 3000 SCHELE AVE
13F092699 19:38:12 911 HANG UP 5700 HARTFORD DR
13F092700 19:38:25 911 HANG UP 1900 HOBSON RD
13F092701 19:39:09 51JO 1200 WASHINGTON BLVD E & WALTER ST
13F092702 19:39:27 33,34 6900 STATE BLVD E & BUSCHE DR
13F092703 19:39:54 43 DISTURBANCE 1000 WASHINGTON BLVD E
13F092704 19:41:40 99 NARCOTICS 1800 COLISEUM BLVD W
13F092705 19:48:06 16V PICKUP VID 00 MAIN ST E
13F092706 19:50:27 48,35 6000 TRIER RD
13F092707 19:50:50 55 FIGHT 600 LEWIS ST E
13F092708 19:55:53 14 WARRANT 100 STATE BLVD E & CLINTON ST N
13F092709 20:04:06 46 DOMESTIC 500 WOODLAND AVE E
13F092710 20:08:01 48 SUSPICIOUS 2800 WEISSER PARK AVE
13F092711 20:08:37 HARASSMENT 6300 STELLHORN RD
13F092712 20:10:53 129 6700 COVINGTON CREEK TRL
13F092713 20:11:14 129 6700 COVINGTON CREEK TRL
13F092714 20:15:05 63 CONTACT 7000 MONTEREY DR
13F092715 20:15:13 103 UNWANTED 1700 TILLMAN RD E
13F092716 20:16:50 14 WARRANT 3900 CLINTON ST N
13F092717 20:17:13 46 DOMESTIC 5100 NASSAU DR
13F092718 20:21:17 108 FOLLOWUP 5100 ROBERTA DR
13F092719 20:21:36 96IP 3400 DIPLOMAT DR
13F092720 20:22:37 30 TRAFFIC STOP 3000 FRUEHAUF DR & EVANS ST
13F092721 20:22:39 43 DISTURBANCE 1000 RIVERMET AVE
13F092722 20:24:07 911 HANG UP 4200 COLDWATER RD
13F092723 20:25:33 96JO 2100 FOX AVE
13F092724 20:26:54 911 HANG UP 00 COUNTRY FOREST DR
13F092725 20:32:00 24 MISSING PERS 4700 BOWSER AVE
13F092726 20:33:23 43 DISTURBANCE 1400 SPY RUN AVE
13F092727 20:35:38 48 SUSPICIOUS 7300 LIMA RD & COOK RD W
13F092728 20:35:54 43,62 4900 TRACE DR
13F092729 20:37:12 22I JUV INVEST 3000 HOAGLAND AVE & WILDWOOD AVE W
13F092730 20:37:28 911 HANG UP 3900 HANNA ST S
13F092731 20:41:56 63 CONTACT 600 MECHANIC ST
13F092732 20:43:05 25 PD ACCIDENT 4700 CLINTON ST N & PARNELL AVE
13F092733 20:51:58 43 DISTURBANCE 2800 ALEXANDER ST
13F092734 20:54:55 51JO 7500 SOUTHTOWN XING
13F092735 20:55:25 16V PICKUP VID 00 MAIN ST E
13F092736 20:55:50 34 TRAFF HAZARD 3800 INDIANA AVE & RUDISILL BLVD W
13F092737 21:01:34 62 PARTY ARMED 3900 BOWSER AVE
13F092738 21:02:49 48 SUSPICIOUS 2600 CALHOUN ST S & PONTIAC ST E
13F092739 21:05:11 911 HANG UP 3300 FAIRFIELD AVE
13F092740 21:05:34 33J LOCKED OUT 1000 COLISEUM BLVD E
13F092741 21:06:01 911 HANG UP 600 WALNUT ST
13F092742 21:11:30 66 MENTALLY ILL 3800 DALEWOOD DR
13F092743 21:13:42 43 DISTURBANCE 3000 PONTIAC ST E
13F092744 21:17:01 44FW 2900 OAKWOOD DR
13F092745 21:17:34 45 NEIGHBORHOOD 1300 OAKLAND ST
13F092746 21:20:24 43,62 2700 PAULDING RD E
13F092747 21:21:09 33J LOCKED OUT 3500 LEESBURG RD
13F092748 21:22:29 102 THREATS 2800 BOSWORTH DR
13F092749 21:22:39 911 HANG UP 1200 HUESTIS AVE
13F092750 21:30:33 129 300 WILDWOOD AVE E
13F092751 21:34:25 46,96 1400 SPRING ST
13F092752 21:34:29 55 FIGHT 6100 SALGE DR
13F092753 21:36:00 66 MENTALLY ILL 6100 ALLENWOOD DR
13F092754 21:37:48 46,96 1400 GREENE ST
13F092755 21:38:24 33,34 300 COLISEUM BLVD E
13F092756 21:40:49 911 HANG UP 1100 HAMILTON AVE
13F092757 21:41:11 44LM 5700 HEATHERVIEW LN
13F092758 21:42:03 911 HANG UP 7400 LAKERIDGE DR
13F092759 21:42:29 62 PARTY ARMED 3600 ROBINWOOD DR
13F092760 21:43:41 30 TRAFFIC STOP 4300 LIMA RD & COLISEUM BLVD W
13F092761 21:45:56 43 DISTURBANCE 2500 MINER ST
13F092762 21:46:16 43 DISTURBANCE 3700 ELMCREST DR
13F092763 21:46:44 43 DISTURBANCE 2400 OLIVER ST
13F092764 21:47:11 43 DISTURBANCE 2000 COLISEUM BLVD N
13F092765 21:48:55 44FW 4300 FAIRFIELD AVE
13F092766 21:49:03 46 DOMESTIC 3000 GOSHEN RD
13F092767 21:50:39 911 HANG UP 2100 OAKLEY ST
13F092768 21:55:03 22I JUV INVEST 4300 WARSAW ST
13F092769 21:55:53 911 HANG UP 1400 COLISEUM BLVD N
13F092770 21:58:17 14 WARRANT 1900 FOX POINT TRL
13F092771 21:58:29 46 DOMESTIC 2400 FAIRFIELD AVE
13F092772 22:01:09 48,36 2900 WITCHWOOD DR & BEATY AVE
13F092773 22:01:44 129 1100 GOLDSPUR DR E
13F092774 22:01:50 129 1100 GOLDSPUR DR E
13F092775 22:01:54 EMS 2900 MCCORMICK AVE
13F092776 22:03:24 44LM 4000 SMITH ST
13F092777 22:04:09 20 PROBLEM UNK 2400 FAIRFIELD AVE
13F092778 22:06:19 24 MISSING PERS 7600 REGINA DR
13F092779 22:08:42 101 OPEN DOOR 1400 RUDISILL BLVD E
13F092780 22:10:12 911 HANG UP 4400 SPATZ AVE
13F092781 22:14:04 30 TRAFFIC STOP 900 STATE BLVD W & OAKLAND ST
13F092782 22:14:36 30 TRAFFIC STOP 2600 CLINTON ST S & PONTIAC ST E
13F092783 22:17:27 EMS 7200 DECATUR RD
13F092784 22:18:57 51 THEFT 4200 CASA VERDE DR
13F092785 22:20:45 30 TRAFFIC STOP 7800 ABOITE CENTER RD & DICKE RD
13F092786 22:23:22 25HS HIT SKIP 1400 COLISEUM BLVD S & WASHINGTON
13F092787 22:24:53 48 SUSPICIOUS 2300 MINER ST
13F092788 22:26:47 20 PROBLEM UNK 200 JEFFERSON BLVD W & WEBSTER ST
13F092789 22:28:07 50IP BURG I/P 1300 WABASH AVE
13F092790 22:33:18 48 SUSPICIOUS 2900 CLINTON ST S
13F092791 22:37:54 40A AUDIBLE 1100 GRANT AVE
13F092792 22:38:21 48,36 6100 ST JOE CENTER RD
13F092793 22:38:51 40A AUDIBLE 1700 APPLE GLEN BLVD
13F092794 22:40:12 30 TRAFFIC STOP 800 LEY RD & LIMA RD
13F092795 22:44:01 99 NARCOTICS 4600 HEATHERWIND DR
13F092796 22:45:48 44LM 1000 RIDGEWOOD DR
13F092797 22:48:20 911 HANG UP 6300 LIMA RD
13F092798 22:49:18 30 TRAFFIC STOP 2900 WINTER ST & COLERICK ST
13F092799 22:50:56 46 DOMESTIC 1000 EDGEWATER AVE
13F092800 22:51:53 911 HANG UP 1500 MAUMEE AVE
13F092801 22:53:14 30 TRAFFIC STOP 600 SENATE AVE & HANNA ST S
13F092802 22:55:53 113 SHOTS FIRED 600 TENNESSEE AVE
13F092803 22:56:19 30 TRAFFIC STOP 2000 FAIRFIELD AVE & WALNUT ST
13F092804 22:56:48 101 OPEN DOOR 10500 LONE EAGLE WAY
13F092805 22:59:39 101 OPEN DOOR 10500 LONE EAGLE WAY
13F092806 23:03:24 33,34 3200 LAFAYETTE ST S
13F092807 23:09:42 101 OPEN DOOR 10600 LA CABREAH LN
13F092808 23:09:56 46 DOMESTIC 3200 EUCLID AVE
13F092809 23:11:17 911 HANG UP 7100 ELKHORN DR
13F092810 23:14:54 22RC RECOVERY 5500 STANDISH DR
13F092811 23:17:32 34 TRAFF HAZARD 31100 I 69 NB
13F092812 23:18:39 22I JUV INVEST 5600 LE STEELE BLVD
13F092813 23:21:04 129 3900 HUTH DR
13F092814 23:21:31 129 2900 WOOD KNOLL LN
13F092815 23:21:56 16V PICKUP VID 00 MAIN ST E
13F092816 23:23:47 911 HANG UP 1900 ANTHONY BLVD N
13F092817 23:24:49 44LM 2200 HOBSON DR & STATE BLVD E
13F092818 23:27:42 14 WARRANT 1500 WELLS ST
13F092819 23:32:15 96JO 3900 NEWPORT AVE
13F092820 23:32:36 51 THEFT 800 DONNELL AVE
13F092821 23:34:49 48 SUSPICIOUS 7300 DECATUR RD
13F092822 23:34:53 48,36 1600 HIGH ST
13F092823 23:36:06 911 HANG UP 7900 JEFFERSON BLVD W
13F092824 23:37:55 911 HANG UP 4000 AVONDALE DR
13F092825 23:40:45 41 MAN DOWN 2800 BROOKLYN AVE
13F092826 23:43:33 63 CONTACT 1200 KINSMOOR AVE
13F092827 23:47:35 43 DISTURBANCE 700 BROADWAY
13F092828 23:49:19 37 PARKING VIOL 1000 FRANKLIN AVE
13F092829 23:53:01 44LM 4500 WOODLYNN CT
13F092830 23:53:25 30 TRAFFIC STOP 800 RUDISILL BLVD E & SOUTHPARK DR
13F092831 23:55:38 55 FIGHT 4400 BOWSER AVE
13F092832 23:55:57 48,35 1600 ANDREW ST & HUFFMAN ST
Amber Alert

All-America City